owner,sensor,date,latitude,longitude,air_pressure(mBar),qcFlag 
COMPS,ioos:station:USF.COMPS:C13:1,2017-05-01T00:05:00Z,26.0630,-83.0730,1014.29,1111122 
COMPS,ioos:station:USF.COMPS:C13:1,2017-05-01T00:35:00Z,26.0630,-83.0730,1014.79,1111122 
COMPS,ioos:station:USF.COMPS:C13:1,2017-05-01T01:05:00Z,26.0630,-83.0730,1014.84,1111122 
COMPS,ioos:station:USF.COMPS:C13:1,2017-05-01T01:35:00Z,26.0630,-83.0730,1014.83,1111122 
COMPS,ioos:station:USF.COMPS:C13:1,2017-05-01T02:05:00Z,26.0630,-83.0730,1015.03,1111122 
COMPS,ioos:station:USF.COMPS:C13:1,2017-05-01T02:35:00Z,26.0630,-83.0730,1015.04,1111122 
COMPS,ioos:station:USF.COMPS:C13:1,2017-05-01T03:05:00Z,26.0630,-83.0730,1015.02,1111122 
COMPS,ioos:station:USF.COMPS:C13:1,2017-05-01T03:35:00Z,26.0630,-83.0730,1014.93,1111122 
COMPS,ioos:station:USF.COMPS:C13:1,2017-05-01T04:05:00Z,26.0630,-83.0730,1014.8,1111122 
COMPS,ioos:station:USF.COMPS:C13:1,2017-05-01T04:35:00Z,26.0630,-83.0730,1014.83,1111122 
COMPS,ioos:station:USF.COMPS:C13:1,2017-05-01T05:05:00Z,26.0630,-83.0730,1014.8,1111122 
COMPS,ioos:station:USF.COMPS:C13:1,2017-05-01T05:35:00Z,26.0630,-83.0730,1014.82,1111122 
COMPS,ioos:station:USF.COMPS:C13:1,2017-05-01T06:05:00Z,26.0630,-83.0730,1014.39,1111122 
COMPS,ioos:station:USF.COMPS:C13:1,2017-05-01T06:35:00Z,26.0630,-83.0730,1014.34,1111122 
COMPS,ioos:station:USF.COMPS:C13:1,2017-05-01T07:05:00Z,26.0630,-83.0730,1014.18,1111122 
COMPS,ioos:station:USF.COMPS:C13:1,2017-05-01T07:35:00Z,26.0630,-83.0730,1013.87,1111122 
COMPS,ioos:station:USF.COMPS:C13:1,2017-05-01T08:05:00Z,26.0630,-83.0730,1013.81,1111122 
COMPS,ioos:station:USF.COMPS:C13:1,2017-05-01T08:35:00Z,26.0630,-83.0730,1013.44,1111122 
COMPS,ioos:station:USF.COMPS:C13:1,2017-05-01T09:05:00Z,26.0630,-83.0730,1013.42,1111122 
COMPS,ioos:station:USF.COMPS:C13:1,2017-05-01T09:35:00Z,26.0630,-83.0730,1013.35,1111122 
COMPS,ioos:station:USF.COMPS:C13:1,2017-05-01T10:05:00Z,26.0630,-83.0730,1013.44,1111122 
COMPS,ioos:station:USF.COMPS:C13:1,2017-05-01T10:35:00Z,26.0630,-83.0730,1013.37,1111122 
COMPS,ioos:station:USF.COMPS:C13:1,2017-05-01T11:05:00Z,26.0630,-83.0730,1013.55,1111122 
COMPS,ioos:station:USF.COMPS:C13:1,2017-05-01T11:35:00Z,26.0630,-83.0730,1013.77,1111122 
COMPS,ioos:station:USF.COMPS:C13:1,2017-05-01T12:05:00Z,26.0630,-83.0730,1014.15,1111122 
COMPS,ioos:station:USF.COMPS:C13:1,2017-05-01T12:35:00Z,26.0630,-83.0730,1014.4,1111122 
COMPS,ioos:station:USF.COMPS:C13:1,2017-05-01T13:05:00Z,26.0630,-83.0730,1014.8,1111122 
COMPS,ioos:station:USF.COMPS:C13:1,2017-05-01T13:35:00Z,26.0630,-83.0730,1015.17,1111122 
COMPS,ioos:station:USF.COMPS:C13:1,2017-05-01T14:05:00Z,26.0630,-83.0730,1015.43,1111122 
COMPS,ioos:station:USF.COMPS:C13:1,2017-05-01T14:35:00Z,26.0630,-83.0730,1015.83,1111122 
COMPS,ioos:station:USF.COMPS:C13:1,2017-05-01T15:05:00Z,26.0630,-83.0730,1016.07,1111122 
COMPS,ioos:station:USF.COMPS:C13:1,2017-05-01T15:35:00Z,26.0630,-83.0730,1016.3,1111122 
COMPS,ioos:station:USF.COMPS:C13:1,2017-05-01T16:05:00Z,26.0630,-83.0730,1016.07,1111122 
COMPS,ioos:station:USF.COMPS:C13:1,2017-05-01T16:35:00Z,26.0630,-83.0730,1015.98,1111122 
COMPS,ioos:station:USF.COMPS:C13:1,2017-05-01T17:05:00Z,26.0630,-83.0730,1015.93,1111122 
COMPS,ioos:station:USF.COMPS:C13:1,2017-05-01T17:35:00Z,26.0630,-83.0730,1015.77,1111122 
COMPS,ioos:station:USF.COMPS:C13:1,2017-05-01T18:05:00Z,26.0630,-83.0730,1015.87,1111122 
COMPS,ioos:station:USF.COMPS:C13:1,2017-05-01T18:35:00Z,26.0630,-83.0730,1015.62,1111122 
COMPS,ioos:station:USF.COMPS:C13:1,2017-05-01T19:05:00Z,26.0630,-83.0730,1014.96,1111122 
COMPS,ioos:station:USF.COMPS:C13:1,2017-05-01T19:35:00Z,26.0630,-83.0730,1014.96,1111122 
COMPS,ioos:station:USF.COMPS:C13:1,2017-05-01T20:05:00Z,26.0630,-83.0730,1014.63,1111122 
COMPS,ioos:station:USF.COMPS:C13:1,2017-05-01T20:35:00Z,26.0630,-83.0730,1014.12,1111122 
COMPS,ioos:station:USF.COMPS:C13:1,2017-05-01T21:05:00Z,26.0630,-83.0730,1013.77,1111122 
COMPS,ioos:station:USF.COMPS:C13:1,2017-05-01T21:35:00Z,26.0630,-83.0730,1013.76,1111122 
COMPS,ioos:station:USF.COMPS:C13:1,2017-05-01T22:05:00Z,26.0630,-83.0730,1013.59,1111122 
COMPS,ioos:station:USF.COMPS:C13:1,2017-05-01T22:35:00Z,26.0630,-83.0730,1012.75,1111122 
COMPS,ioos:station:USF.COMPS:C13:1,2017-05-01T23:05:00Z,26.0630,-83.0730,1012.04,1111122 
COMPS,ioos:station:USF.COMPS:C13:1,2017-05-01T23:35:00Z,26.0630,-83.0730,1012.37,1111122 
COMPS,ioos:station:USF.COMPS:C13:1,2017-05-02T00:05:00Z,26.0630,-83.0730,1011.75,1111122 
COMPS,ioos:station:USF.COMPS:C13:1,2017-05-02T00:35:00Z,26.0630,-83.0730,1011.67,1111122 
COMPS,ioos:station:USF.COMPS:C13:1,2017-05-02T01:05:00Z,26.0630,-83.0730,1011.51,1111122 
COMPS,ioos:station:USF.COMPS:C13:1,2017-05-02T01:35:00Z,26.0630,-83.0730,1011.27,1111122 
COMPS,ioos:station:USF.COMPS:C13:1,2017-05-02T02:05:00Z,26.0630,-83.0730,1011.97,1111122 
COMPS,ioos:station:USF.COMPS:C13:1,2017-05-02T02:35:00Z,26.0630,-83.0730,1012.83,1111122 
COMPS,ioos:station:USF.COMPS:C13:1,2017-05-02T03:05:00Z,26.0630,-83.0730,1013.4,1111122 
COMPS,ioos:station:USF.COMPS:C13:1,2017-05-02T03:35:00Z,26.0630,-83.0730,1013.87,1111122 
COMPS,ioos:station:USF.COMPS:C13:1,2017-05-02T04:05:00Z,26.0630,-83.0730,1014.04,1111122 
COMPS,ioos:station:USF.COMPS:C13:1,2017-05-02T04:35:00Z,26.0630,-83.0730,1013.97,1111122 
COMPS,ioos:station:USF.COMPS:C13:1,2017-05-02T05:05:00Z,26.0630,-83.0730,1013.87,1111122 
COMPS,ioos:station:USF.COMPS:C13:1,2017-05-02T05:35:00Z,26.0630,-83.0730,1013.8,1111122 
COMPS,ioos:station:USF.COMPS:C13:1,2017-05-02T06:05:00Z,26.0630,-83.0730,1013.36,1111122 
COMPS,ioos:station:USF.COMPS:C13:1,2017-05-02T06:35:00Z,26.0630,-83.0730,1013.38,1111122 
COMPS,ioos:station:USF.COMPS:C13:1,2017-05-02T07:05:00Z,26.0630,-83.0730,1013.2,1111122 
COMPS,ioos:station:USF.COMPS:C13:1,2017-05-02T07:35:00Z,26.0630,-83.0730,1013.12,1111122 
COMPS,ioos:station:USF.COMPS:C13:1,2017-05-02T08:05:00Z,26.0630,-83.0730,1012.99,1111122 
COMPS,ioos:station:USF.COMPS:C13:1,2017-05-02T08:35:00Z,26.0630,-83.0730,1013.33,1111122 
COMPS,ioos:station:USF.COMPS:C13:1,2017-05-02T09:05:00Z,26.0630,-83.0730,1013.35,1111122 
COMPS,ioos:station:USF.COMPS:C13:1,2017-05-02T09:35:00Z,26.0630,-83.0730,1013.37,1111122 
COMPS,ioos:station:USF.COMPS:C13:1,2017-05-02T10:05:00Z,26.0630,-83.0730,1013.27,1111122 
COMPS,ioos:station:USF.COMPS:C13:1,2017-05-02T10:35:00Z,26.0630,-83.0730,1013.49,1111122 
COMPS,ioos:station:USF.COMPS:C13:1,2017-05-02T11:05:00Z,26.0630,-83.0730,1013.78,1111122 
COMPS,ioos:station:USF.COMPS:C13:1,2017-05-02T11:35:00Z,26.0630,-83.0730,1014.3,1111122 
COMPS,ioos:station:USF.COMPS:C13:1,2017-05-02T12:05:00Z,26.0630,-83.0730,1014.75,1111122 
COMPS,ioos:station:USF.COMPS:C13:1,2017-05-02T12:35:00Z,26.0630,-83.0730,1014.7,1111122 
COMPS,ioos:station:USF.COMPS:C13:1,2017-05-02T13:05:00Z,26.0630,-83.0730,1014.72,1111122 
COMPS,ioos:station:USF.COMPS:C13:1,2017-05-02T13:35:00Z,26.0630,-83.0730,1014.71,1111122 
COMPS,ioos:station:USF.COMPS:C13:1,2017-05-02T14:05:00Z,26.0630,-83.0730,1014.72,1111122 
COMPS,ioos:station:USF.COMPS:C13:1,2017-05-02T14:35:00Z,26.0630,-83.0730,1014.79,1111122 
COMPS,ioos:station:USF.COMPS:C13:1,2017-05-02T15:05:00Z,26.0630,-83.0730,1014.8,1111122 
COMPS,ioos:station:USF.COMPS:C13:1,2017-05-02T15:35:00Z,26.0630,-83.0730,1014.88,1111122 
COMPS,ioos:station:USF.COMPS:C13:1,2017-05-02T16:05:00Z,26.0630,-83.0730,1014.96,1111122 
COMPS,ioos:station:USF.COMPS:C13:1,2017-05-02T16:35:00Z,26.0630,-83.0730,1014.8,1111122 
COMPS,ioos:station:USF.COMPS:C13:1,2017-05-02T17:05:00Z,26.0630,-83.0730,1014.75,1111122 
COMPS,ioos:station:USF.COMPS:C13:1,2017-05-02T17:35:00Z,26.0630,-83.0730,1014.51,1111122 
COMPS,ioos:station:USF.COMPS:C13:1,2017-05-02T18:05:00Z,26.0630,-83.0730,1014.25,1111122 
COMPS,ioos:station:USF.COMPS:C13:1,2017-05-02T18:35:00Z,26.0630,-83.0730,1014.13,1111122 
COMPS,ioos:station:USF.COMPS:C13:1,2017-05-02T19:05:00Z,26.0630,-83.0730,1013.67,1111122 
COMPS,ioos:station:USF.COMPS:C13:1,2017-05-02T19:35:00Z,26.0630,-83.0730,1013.35,1111122 
COMPS,ioos:station:USF.COMPS:C13:1,2017-05-02T20:05:00Z,26.0630,-83.0730,1013.17,1111122 
COMPS,ioos:station:USF.COMPS:C13:1,2017-05-02T20:35:00Z,26.0630,-83.0730,1012.9,1111122 
COMPS,ioos:station:USF.COMPS:C13:1,2017-05-02T21:05:00Z,26.0630,-83.0730,1012.81,1111122 
COMPS,ioos:station:USF.COMPS:C13:1,2017-05-02T21:35:00Z,26.0630,-83.0730,1012.63,1111122 
COMPS,ioos:station:USF.COMPS:C13:1,2017-05-02T22:05:00Z,26.0630,-83.0730,1012.5,1111122 
COMPS,ioos:station:USF.COMPS:C13:1,2017-05-02T22:35:00Z,26.0630,-83.0730,1012.37,1111122 
COMPS,ioos:station:USF.COMPS:C13:1,2017-05-02T23:05:00Z,26.0630,-83.0730,1012.44,1111122 
COMPS,ioos:station:USF.COMPS:C13:1,2017-05-02T23:35:00Z,26.0630,-83.0730,1012.55,1111122 
COMPS,ioos:station:USF.COMPS:C13:1,2017-05-03T00:05:00Z,26.0630,-83.0730,1012.63,1111122 
COMPS,ioos:station:USF.COMPS:C13:1,2017-05-03T00:35:00Z,26.0630,-83.0730,1012.9,1111122 
COMPS,ioos:station:USF.COMPS:C13:1,2017-05-03T01:05:00Z,26.0630,-83.0730,1013.38,1111122 
COMPS,ioos:station:USF.COMPS:C13:1,2017-05-03T01:35:00Z,26.0630,-83.0730,1013.9,1111122 
COMPS,ioos:station:USF.COMPS:C13:1,2017-05-03T02:05:00Z,26.0630,-83.0730,1014.15,1111122 
COMPS,ioos:station:USF.COMPS:C13:1,2017-05-03T02:35:00Z,26.0630,-83.0730,1014.25,1111122 
COMPS,ioos:station:USF.COMPS:C13:1,2017-05-03T03:05:00Z,26.0630,-83.0730,1014.68,1111122 
COMPS,ioos:station:USF.COMPS:C13:1,2017-05-03T03:35:00Z,26.0630,-83.0730,1014.54,1111122 
COMPS,ioos:station:USF.COMPS:C13:1,2017-05-03T04:05:00Z,26.0630,-83.0730,1014.55,1111122 
COMPS,ioos:station:USF.COMPS:C13:1,2017-05-03T04:35:00Z,26.0630,-83.0730,1014.52,1111122 
COMPS,ioos:station:USF.COMPS:C13:1,2017-05-03T05:05:00Z,26.0630,-83.0730,1013.83,1111122 
COMPS,ioos:station:USF.COMPS:C13:1,2017-05-03T05:35:00Z,26.0630,-83.0730,1013.58,1111122 
COMPS,ioos:station:USF.COMPS:C13:1,2017-05-03T06:05:00Z,26.0630,-83.0730,1013.46,1111122 
COMPS,ioos:station:USF.COMPS:C13:1,2017-05-03T06:35:00Z,26.0630,-83.0730,1013.29,1111122 
COMPS,ioos:station:USF.COMPS:C13:1,2017-05-03T07:05:00Z,26.0630,-83.0730,1012.83,1111122 
COMPS,ioos:station:USF.COMPS:C13:1,2017-05-03T07:35:00Z,26.0630,-83.0730,1012.78,1111122 
COMPS,ioos:station:USF.COMPS:C13:1,2017-05-03T08:05:00Z,26.0630,-83.0730,1012.65,1111122 
COMPS,ioos:station:USF.COMPS:C13:1,2017-05-03T08:35:00Z,26.0630,-83.0730,1012.66,1111122 
COMPS,ioos:station:USF.COMPS:C13:1,2017-05-03T09:05:00Z,26.0630,-83.0730,1012.84,1111122 
COMPS,ioos:station:USF.COMPS:C13:1,2017-05-03T09:35:00Z,26.0630,-83.0730,1012.76,1111122 
COMPS,ioos:station:USF.COMPS:C13:1,2017-05-03T10:05:00Z,26.0630,-83.0730,1012.83,1111122 
COMPS,ioos:station:USF.COMPS:C13:1,2017-05-03T10:35:00Z,26.0630,-83.0730,1013.03,1111122 
COMPS,ioos:station:USF.COMPS:C13:1,2017-05-03T11:05:00Z,26.0630,-83.0730,1013.4,1111122 
COMPS,ioos:station:USF.COMPS:C13:1,2017-05-03T11:35:00Z,26.0630,-83.0730,1013.87,1111122 
COMPS,ioos:station:USF.COMPS:C13:1,2017-05-03T12:05:00Z,26.0630,-83.0730,1013.92,1111122 
COMPS,ioos:station:USF.COMPS:C13:1,2017-05-03T12:35:00Z,26.0630,-83.0730,1014.14,1111122 
COMPS,ioos:station:USF.COMPS:C13:1,2017-05-03T14:05:00Z,26.0630,-83.0730,1014.42,1111122 
COMPS,ioos:station:USF.COMPS:C13:1,2017-05-03T14:35:00Z,26.0630,-83.0730,1014.42,1111122 
COMPS,ioos:station:USF.COMPS:C13:1,2017-05-03T15:05:00Z,26.0630,-83.0730,1014.27,1111122 
COMPS,ioos:station:USF.COMPS:C13:1,2017-05-03T15:35:00Z,26.0630,-83.0730,1014.26,1111122 
COMPS,ioos:station:USF.COMPS:C13:1,2017-05-03T16:05:00Z,26.0630,-83.0730,1014.24,1111122 
COMPS,ioos:station:USF.COMPS:C13:1,2017-05-03T16:35:00Z,26.0630,-83.0730,1013.91,1111122 
COMPS,ioos:station:USF.COMPS:C13:1,2017-05-03T17:05:00Z,26.0630,-83.0730,1013.62,1111122 
COMPS,ioos:station:USF.COMPS:C13:1,2017-05-03T17:35:00Z,26.0630,-83.0730,1013.31,1111122 
COMPS,ioos:station:USF.COMPS:C13:1,2017-05-03T18:05:00Z,26.0630,-83.0730,1013.08,1111122 
COMPS,ioos:station:USF.COMPS:C13:1,2017-05-03T18:35:00Z,26.0630,-83.0730,1012.9,1111122 
COMPS,ioos:station:USF.COMPS:C13:1,2017-05-03T19:05:00Z,26.0630,-83.0730,1012.48,1111122 
COMPS,ioos:station:USF.COMPS:C13:1,2017-05-03T19:35:00Z,26.0630,-83.0730,1011.96,1111122 
COMPS,ioos:station:USF.COMPS:C13:1,2017-05-03T20:05:00Z,26.0630,-83.0730,1011.86,1111122 
COMPS,ioos:station:USF.COMPS:C13:1,2017-05-03T20:35:00Z,26.0630,-83.0730,1011.93,1111122 
COMPS,ioos:station:USF.COMPS:C13:1,2017-05-03T21:05:00Z,26.0630,-83.0730,1011.96,1111122 
COMPS,ioos:station:USF.COMPS:C13:1,2017-05-03T21:35:00Z,26.0630,-83.0730,1011.85,1111122 
COMPS,ioos:station:USF.COMPS:C13:1,2017-05-03T22:05:00Z,26.0630,-83.0730,1011.57,1111122 
COMPS,ioos:station:USF.COMPS:C13:1,2017-05-03T22:35:00Z,26.0630,-83.0730,1011.49,1111122 
COMPS,ioos:station:USF.COMPS:C13:1,2017-05-03T23:05:00Z,26.0630,-83.0730,1011.34,1111122 
COMPS,ioos:station:USF.COMPS:C13:1,2017-05-03T23:35:00Z,26.0630,-83.0730,1011.4,1111122 
COMPS,ioos:station:USF.COMPS:C13:1,2017-05-04T00:05:00Z,26.0630,-83.0730,1011.56,1111122 
COMPS,ioos:station:USF.COMPS:C13:1,2017-05-04T00:35:00Z,26.0630,-83.0730,1012.21,1111122 
COMPS,ioos:station:USF.COMPS:C13:1,2017-05-04T01:05:00Z,26.0630,-83.0730,1012.44,1111122 
COMPS,ioos:station:USF.COMPS:C13:1,2017-05-04T01:35:00Z,26.0630,-83.0730,1012.6,1111122 
COMPS,ioos:station:USF.COMPS:C13:1,2017-05-04T02:05:00Z,26.0630,-83.0730,1012.93,1111122 
COMPS,ioos:station:USF.COMPS:C13:1,2017-05-04T02:35:00Z,26.0630,-83.0730,1013.11,1111122 
COMPS,ioos:station:USF.COMPS:C13:1,2017-05-04T03:05:00Z,26.0630,-83.0730,1012.97,1111122 
COMPS,ioos:station:USF.COMPS:C13:1,2017-05-04T03:35:00Z,26.0630,-83.0730,1013.1,1111122 
COMPS,ioos:station:USF.COMPS:C13:1,2017-05-04T04:05:00Z,26.0630,-83.0730,1012.91,1111122 
COMPS,ioos:station:USF.COMPS:C13:1,2017-05-04T04:35:00Z,26.0630,-83.0730,1012.6,1111122 
COMPS,ioos:station:USF.COMPS:C13:1,2017-05-04T05:05:00Z,26.0630,-83.0730,1012.45,1111122 
COMPS,ioos:station:USF.COMPS:C13:1,2017-05-04T05:35:00Z,26.0630,-83.0730,1011.8,1111122 
COMPS,ioos:station:USF.COMPS:C13:1,2017-05-04T06:05:00Z,26.0630,-83.0730,1011.57,1111122 
COMPS,ioos:station:USF.COMPS:C13:1,2017-05-04T06:35:00Z,26.0630,-83.0730,1011.54,1111122 
COMPS,ioos:station:USF.COMPS:C13:1,2017-05-04T07:05:00Z,26.0630,-83.0730,1010.83,1111122 
COMPS,ioos:station:USF.COMPS:C13:1,2017-05-04T07:35:00Z,26.0630,-83.0730,1009.85,1111122 
COMPS,ioos:station:USF.COMPS:C13:1,2017-05-04T08:05:00Z,26.0630,-83.0730,1009.82,1111122 
COMPS,ioos:station:USF.COMPS:C13:1,2017-05-04T08:35:00Z,26.0630,-83.0730,1009.76,1111122 
COMPS,ioos:station:USF.COMPS:C13:1,2017-05-04T09:05:00Z,26.0630,-83.0730,1009.83,1111122 
COMPS,ioos:station:USF.COMPS:C13:1,2017-05-04T09:35:00Z,26.0630,-83.0730,1009.24,1111122 
COMPS,ioos:station:USF.COMPS:C13:1,2017-05-04T10:05:00Z,26.0630,-83.0730,1009.3,1111122 
COMPS,ioos:station:USF.COMPS:C13:1,2017-05-04T10:35:00Z,26.0630,-83.0730,1009.91,1111122 
COMPS,ioos:station:USF.COMPS:C13:1,2017-05-04T11:05:00Z,26.0630,-83.0730,1009.95,1111122 
COMPS,ioos:station:USF.COMPS:C13:1,2017-05-04T11:35:00Z,26.0630,-83.0730,1009.95,1111122 
COMPS,ioos:station:USF.COMPS:C13:1,2017-05-04T12:05:00Z,26.0630,-83.0730,1009.95,1111122 
COMPS,ioos:station:USF.COMPS:C13:1,2017-05-04T12:35:00Z,26.0630,-83.0730,1010.16,1111122 
COMPS,ioos:station:USF.COMPS:C13:1,2017-05-04T13:05:00Z,26.0630,-83.0730,1010.17,1111122 
COMPS,ioos:station:USF.COMPS:C13:1,2017-05-04T13:35:00Z,26.0630,-83.0730,1010.18,1111122 
COMPS,ioos:station:USF.COMPS:C13:1,2017-05-04T14:05:00Z,26.0630,-83.0730,1010.3,1111122 
COMPS,ioos:station:USF.COMPS:C13:1,2017-05-04T14:35:00Z,26.0630,-83.0730,1010.44,1111122 
COMPS,ioos:station:USF.COMPS:C13:1,2017-05-04T15:05:00Z,26.0630,-83.0730,1010.66,1111122 
COMPS,ioos:station:USF.COMPS:C13:1,2017-05-04T15:35:00Z,26.0630,-83.0730,1010.66,1111122 
COMPS,ioos:station:USF.COMPS:C13:1,2017-05-04T16:05:00Z,26.0630,-83.0730,1010.53,1111122 
COMPS,ioos:station:USF.COMPS:C13:1,2017-05-04T16:35:00Z,26.0630,-83.0730,1010.6,1111122 
COMPS,ioos:station:USF.COMPS:C13:1,2017-05-04T17:05:00Z,26.0630,-83.0730,1010.27,1111122 
COMPS,ioos:station:USF.COMPS:C13:1,2017-05-04T17:35:00Z,26.0630,-83.0730,1010.16,1111122 
COMPS,ioos:station:USF.COMPS:C13:1,2017-05-04T18:05:00Z,26.0630,-83.0730,1010.22,1111122 
COMPS,ioos:station:USF.COMPS:C13:1,2017-05-04T18:35:00Z,26.0630,-83.0730,1009.84,1111122 
COMPS,ioos:station:USF.COMPS:C13:1,2017-05-04T19:05:00Z,26.0630,-83.0730,1009.62,1111122 
COMPS,ioos:station:USF.COMPS:C13:1,2017-05-04T19:35:00Z,26.0630,-83.0730,1009.36,1111122 
COMPS,ioos:station:USF.COMPS:C13:1,2017-05-04T20:05:00Z,26.0630,-83.0730,1008.84,1111122 
COMPS,ioos:station:USF.COMPS:C13:1,2017-05-04T20:35:00Z,26.0630,-83.0730,1008.77,1111122 
COMPS,ioos:station:USF.COMPS:C13:1,2017-05-04T21:05:00Z,26.0630,-83.0730,1008.85,1111122 
COMPS,ioos:station:USF.COMPS:C13:1,2017-05-04T21:35:00Z,26.0630,-83.0730,1008.7,1111122 
COMPS,ioos:station:USF.COMPS:C13:1,2017-05-04T22:05:00Z,26.0630,-83.0730,1008.57,1111122 
COMPS,ioos:station:USF.COMPS:C13:1,2017-05-04T22:35:00Z,26.0630,-83.0730,1008.62,1111122 
COMPS,ioos:station:USF.COMPS:C13:1,2017-05-04T23:05:00Z,26.0630,-83.0730,1008.66,1111122 
COMPS,ioos:station:USF.COMPS:C13:1,2017-05-04T23:35:00Z,26.0630,-83.0730,1008.32,1111122 
COMPS,ioos:station:USF.COMPS:C13:1,2017-05-05T00:05:00Z,26.0630,-83.0730,1008.33,1111122 
COMPS,ioos:station:USF.COMPS:C13:1,2017-05-05T00:35:00Z,26.0630,-83.0730,1008.0,1111122 
COMPS,ioos:station:USF.COMPS:C13:1,2017-05-05T01:05:00Z,26.0630,-83.0730,1007.84,1111122 
COMPS,ioos:station:USF.COMPS:C13:1,2017-05-05T01:35:00Z,26.0630,-83.0730,1007.49,1111122 
COMPS,ioos:station:USF.COMPS:C13:1,2017-05-05T02:05:00Z,26.0630,-83.0730,1007.23,1111122 
COMPS,ioos:station:USF.COMPS:C13:1,2017-05-05T02:35:00Z,26.0630,-83.0730,1007.08,1111122 
COMPS,ioos:station:USF.COMPS:C13:1,2017-05-05T03:05:00Z,26.0630,-83.0730,1006.6,1111122 
COMPS,ioos:station:USF.COMPS:C13:1,2017-05-05T03:35:00Z,26.0630,-83.0730,1006.61,1111122 
COMPS,ioos:station:USF.COMPS:C13:1,2017-05-05T04:05:00Z,26.0630,-83.0730,1006.82,1111122 
COMPS,ioos:station:USF.COMPS:C13:1,2017-05-05T04:35:00Z,26.0630,-83.0730,1007.13,1111122 
COMPS,ioos:station:USF.COMPS:C13:1,2017-05-05T05:05:00Z,26.0630,-83.0730,1007.3,1111122 
COMPS,ioos:station:USF.COMPS:C13:1,2017-05-05T05:35:00Z,26.0630,-83.0730,1007.26,1111122 
COMPS,ioos:station:USF.COMPS:C13:1,2017-05-05T06:05:00Z,26.0630,-83.0730,1006.91,1111122 
COMPS,ioos:station:USF.COMPS:C13:1,2017-05-05T06:35:00Z,26.0630,-83.0730,1006.87,1111122 
COMPS,ioos:station:USF.COMPS:C13:1,2017-05-05T07:05:00Z,26.0630,-83.0730,1006.54,1111122 
COMPS,ioos:station:USF.COMPS:C13:1,2017-05-05T07:35:00Z,26.0630,-83.0730,1006.31,1111122 
COMPS,ioos:station:USF.COMPS:C13:1,2017-05-05T08:05:00Z,26.0630,-83.0730,1006.36,1111122 
COMPS,ioos:station:USF.COMPS:C13:1,2017-05-05T08:35:00Z,26.0630,-83.0730,1005.93,1111122 
COMPS,ioos:station:USF.COMPS:C13:1,2017-05-05T09:05:00Z,26.0630,-83.0730,1005.88,1111122 
COMPS,ioos:station:USF.COMPS:C13:1,2017-05-05T09:35:00Z,26.0630,-83.0730,1005.85,1111122 
COMPS,ioos:station:USF.COMPS:C13:1,2017-05-05T10:05:00Z,26.0630,-83.0730,1005.84,1111122 
COMPS,ioos:station:USF.COMPS:C13:1,2017-05-05T10:35:00Z,26.0630,-83.0730,1006.13,1111122 
COMPS,ioos:station:USF.COMPS:C13:1,2017-05-05T11:05:00Z,26.0630,-83.0730,1006.61,1111122 
COMPS,ioos:station:USF.COMPS:C13:1,2017-05-05T11:35:00Z,26.0630,-83.0730,1006.98,1111122 
COMPS,ioos:station:USF.COMPS:C13:1,2017-05-05T12:05:00Z,26.0630,-83.0730,1007.2,1111122 
COMPS,ioos:station:USF.COMPS:C13:1,2017-05-05T12:35:00Z,26.0630,-83.0730,1007.7,1111122 
COMPS,ioos:station:USF.COMPS:C13:1,2017-05-05T13:05:00Z,26.0630,-83.0730,1007.9,1111122 
COMPS,ioos:station:USF.COMPS:C13:1,2017-05-05T13:35:00Z,26.0630,-83.0730,1007.92,1111122 
COMPS,ioos:station:USF.COMPS:C13:1,2017-05-05T14:05:00Z,26.0630,-83.0730,1008.32,1111122 
COMPS,ioos:station:USF.COMPS:C13:1,2017-05-05T14:35:00Z,26.0630,-83.0730,1008.37,1111122 
COMPS,ioos:station:USF.COMPS:C13:1,2017-05-05T15:05:00Z,26.0630,-83.0730,1008.78,1111122 
COMPS,ioos:station:USF.COMPS:C13:1,2017-05-05T15:35:00Z,26.0630,-83.0730,1008.9,1111122 
COMPS,ioos:station:USF.COMPS:C13:1,2017-05-05T16:05:00Z,26.0630,-83.0730,1009.11,1111122 
COMPS,ioos:station:USF.COMPS:C13:1,2017-05-05T16:35:00Z,26.0630,-83.0730,1009.17,1111122 
COMPS,ioos:station:USF.COMPS:C13:1,2017-05-05T17:05:00Z,26.0630,-83.0730,1009.25,1111122 
COMPS,ioos:station:USF.COMPS:C13:1,2017-05-05T17:35:00Z,26.0630,-83.0730,1009.26,1111122 
COMPS,ioos:station:USF.COMPS:C13:1,2017-05-05T18:05:00Z,26.0630,-83.0730,1009.14,1111122 
COMPS,ioos:station:USF.COMPS:C13:1,2017-05-05T18:35:00Z,26.0630,-83.0730,1008.95,1111122 
COMPS,ioos:station:USF.COMPS:C13:1,2017-05-05T19:05:00Z,26.0630,-83.0730,1008.93,1111122 
COMPS,ioos:station:USF.COMPS:C13:1,2017-05-05T19:35:00Z,26.0630,-83.0730,1008.75,1111122 
COMPS,ioos:station:USF.COMPS:C13:1,2017-05-05T20:05:00Z,26.0630,-83.0730,1008.62,1111122 
COMPS,ioos:station:USF.COMPS:C13:1,2017-05-05T20:35:00Z,26.0630,-83.0730,1008.29,1111122 
COMPS,ioos:station:USF.COMPS:C13:1,2017-05-05T21:05:00Z,26.0630,-83.0730,1008.16,1111122 
COMPS,ioos:station:USF.COMPS:C13:1,2017-05-05T21:35:00Z,26.0630,-83.0730,1008.26,1111122 
COMPS,ioos:station:USF.COMPS:C13:1,2017-05-05T22:05:00Z,26.0630,-83.0730,1008.24,1111122 
COMPS,ioos:station:USF.COMPS:C13:1,2017-05-05T22:35:00Z,26.0630,-83.0730,1008.36,1111122 
COMPS,ioos:station:USF.COMPS:C13:1,2017-05-05T23:05:00Z,26.0630,-83.0730,1008.51,1111122 
COMPS,ioos:station:USF.COMPS:C13:1,2017-05-05T23:35:00Z,26.0630,-83.0730,1008.51,1111122 
COMPS,ioos:station:USF.COMPS:C13:1,2017-05-06T00:05:00Z,26.0630,-83.0730,1008.84,1111122 
COMPS,ioos:station:USF.COMPS:C13:1,2017-05-06T00:35:00Z,26.0630,-83.0730,1008.97,1111122 
COMPS,ioos:station:USF.COMPS:C13:1,2017-05-06T01:05:00Z,26.0630,-83.0730,1009.22,1111122 
COMPS,ioos:station:USF.COMPS:C13:1,2017-05-06T01:35:00Z,26.0630,-83.0730,1009.46,1111122 
COMPS,ioos:station:USF.COMPS:C13:1,2017-05-06T02:05:00Z,26.0630,-83.0730,1009.68,1111122 
COMPS,ioos:station:USF.COMPS:C13:1,2017-05-06T02:35:00Z,26.0630,-83.0730,1009.76,1111122 
COMPS,ioos:station:USF.COMPS:C13:1,2017-05-06T03:05:00Z,26.0630,-83.0730,1010.07,1111122 
COMPS,ioos:station:USF.COMPS:C13:1,2017-05-06T03:35:00Z,26.0630,-83.0730,1010.24,1111122 
COMPS,ioos:station:USF.COMPS:C13:1,2017-05-06T04:05:00Z,26.0630,-83.0730,1010.2,1111122 
COMPS,ioos:station:USF.COMPS:C13:1,2017-05-06T04:35:00Z,26.0630,-83.0730,1010.3,1111122 
COMPS,ioos:station:USF.COMPS:C13:1,2017-05-06T05:05:00Z,26.0630,-83.0730,1010.31,1111122 
COMPS,ioos:station:USF.COMPS:C13:1,2017-05-06T05:35:00Z,26.0630,-83.0730,1010.3,1111122 
COMPS,ioos:station:USF.COMPS:C13:1,2017-05-06T06:05:00Z,26.0630,-83.0730,1010.18,1111122 
COMPS,ioos:station:USF.COMPS:C13:1,2017-05-06T06:35:00Z,26.0630,-83.0730,1009.93,1111122 
COMPS,ioos:station:USF.COMPS:C13:1,2017-05-06T07:05:00Z,26.0630,-83.0730,1009.76,1111122 
COMPS,ioos:station:USF.COMPS:C13:1,2017-05-06T07:35:00Z,26.0630,-83.0730,1009.84,1111122 
COMPS,ioos:station:USF.COMPS:C13:1,2017-05-06T08:05:00Z,26.0630,-83.0730,1010.02,1111122 
COMPS,ioos:station:USF.COMPS:C13:1,2017-05-06T08:35:00Z,26.0630,-83.0730,1010.28,1111122 
COMPS,ioos:station:USF.COMPS:C13:1,2017-05-06T09:05:00Z,26.0630,-83.0730,1010.52,1111122 
COMPS,ioos:station:USF.COMPS:C13:1,2017-05-06T09:35:00Z,26.0630,-83.0730,1010.74,1111122 
COMPS,ioos:station:USF.COMPS:C13:1,2017-05-06T10:05:00Z,26.0630,-83.0730,1010.96,1111122 
COMPS,ioos:station:USF.COMPS:C13:1,2017-05-06T10:35:00Z,26.0630,-83.0730,1011.23,1111122 
COMPS,ioos:station:USF.COMPS:C13:1,2017-05-06T11:05:00Z,26.0630,-83.0730,1011.4,1111122 
COMPS,ioos:station:USF.COMPS:C13:1,2017-05-06T11:35:00Z,26.0630,-83.0730,1011.71,1111122 
COMPS,ioos:station:USF.COMPS:C13:1,2017-05-06T12:05:00Z,26.0630,-83.0730,1012.11,1111122 
COMPS,ioos:station:USF.COMPS:C13:1,2017-05-06T12:35:00Z,26.0630,-83.0730,1012.48,1111122 
COMPS,ioos:station:USF.COMPS:C13:1,2017-05-06T13:05:00Z,26.0630,-83.0730,1012.59,1111122 
COMPS,ioos:station:USF.COMPS:C13:1,2017-05-06T13:35:00Z,26.0630,-83.0730,1012.87,1111122 